Regional Weather Roundup
Issued by NWS Jackson, KY

Home | Current Version | Previous Version | Graphics & Text | Print | Product List | Glossary On
Versions: 1 2 3 4 5 6 7 8 9 10 11 12 13 14 15 16 17 18 19 20 21 22 23 24 25 26 27 28 29 30 31 32 33 34 35 36 37 38 39 40 41 42 43 44 45 46 47 48 49
000
ASUS43 KJKL 270810
RWRJKL

EAST KENTUCKY HOURLY WEATHER ROUNDUP
NATIONAL WEATHER SERVICE JACKSON KY
400 AM EDT THU AUG 27 2015

NOTE: "FAIR" INDICATES FEW OR NO CLOUDS BELOW 12,000 FEET WITH
NO SIGNIFICANT WEATHER AND/OR OBSTRUCTIONS TO VISIBILITY.

* THESE REPORTS ARE NOT UNDER NWS QUALITY CONTROL AND MAY NOT
  REPORT WEATHER SUCH AS PRECIPITATION AND FOG.

KYZ079-080-083-085-087-088-110-112-115-119-120-270900
...EASTERN KENTUCKY...

CITY           SKY/WX    TMP DP  RH WIND       PRES   REMARKS
JACKSON        CLEAR     58  54  86 CALM      30.14S
LONDON         CLEAR     58  52  80 N6        30.12F
SOMERSET*      CLEAR     55  54  94 CALM      30.13S
MONTICELLO*    CLEAR     53  53 100 CALM      30.14F
WILLIAMSBURG*  CLEAR     54  54 100 CALM      30.12S
MIDDLESBORO*   CLEAR     54  54  99 CALM      30.12S
HARLAN APT*      N/A     55  55 100 MISG      30.13R
HAZARD APT*    SUNNY     55  55 100 CALM      30.13S
BLACK MTN*       N/A     52  52 100 NE1         N/A
PIKEVILLE APT* CLEAR     57  55  94 CALM      30.14S
BIG SANDY*     SUNNY     56  56  99 CALM      30.14S
MOREHEAD APT*  MOSUNNY   55  55 100 CALM      30.16F
$$

KYZ035-036-041-042-044-050-067-078-099-270900
...CENTRAL KENTUCKY...

CITY           SKY/WX    TMP DP  RH WIND       PRES   REMARKS
MT STERLING*   CLEAR     54  54 100 CALM      30.16S
FLEMING/MASON* MOCLDY    55  55 100 SE3       30.16S
DANVILLE*      CLEAR     52  52 100 CALM      30.14S
RICHMOND*      CLEAR     54  52  94 CALM      30.13S
LEXINGTON      CLOUDY    59  54  83 CALM      30.14S
FRANKFORT      CLOUDY    61  55  81 NE5       30.13S
$$

KYZ091>093-OHZ055-061-077-WVZ005-015-034-035-042-270900
...SOUTHERN OHIO/WEST VIRGINIA...

CITY           SKY/WX    TMP DP  RH WIND       PRES   REMARKS
COVINGTON      CLOUDY    64  56  75 E5        30.14F
COLUMBUS       CLOUDY    62  56  80 CALM      30.14S
DAYTON         CLOUDY    61  58  90 CALM      30.16F
WILMINGTON     CLOUDY    58  56  93 CALM      30.15S
HUNTINGTON     CLEAR     56  55  97 CALM      30.14S
CHARLESTON     PTCLDY    57  56  96 CALM      30.13S
PINEVILLE*     FOG       55  55 100 MISG      30.20S VSB 1/4
BECKLEY        CLEAR     51  49  92 CALM      30.16F
BLUEFIELD      CLEAR     55  50  83 CALM      30.17S
$$

VAZ002-007-008-TNZ017-027-036-066-071-270900
...SOUTHWEST VIRGINIA/EAST TENNESSEE...

CITY           SKY/WX    TMP DP  RH WIND       PRES   REMARKS
WISE*          CLEAR     55  55 100 NE3       30.17S
JONESVILLE*    MOSUNNY   54  54 100 CALM      30.14S
ABINGDON*      MOCLDY    59  52  77 E3        30.14S
BRISTOL        CLOUDY    59  53  80 CALM      30.11S
KNOXVILLE      MOCLDY    64  55  72 NE9       30.06F
OAK RIDGE      PTCLDY    61  57  87 NE3       30.09F
CROSSVILLE     CLEAR     56  53  90 CALM      30.11S
NASHVILLE      CLEAR     63  56  78 N5        30.09S
$$

...KEY TO REMARKS...
VSB - VISIBILITY IN MILES
WCI - WIND CHILL INDEX
HX  - HEAT INDEX

$$



USA.gov is the U.S. government's official web portal to all federal, state and local government web resources and services.